GW2742 Weather Reports


Display with metric or nautical units.
time (UTC)temp
F
wind
direction
speed
MPH
gust
MPH
rain 1hr
in
rain 24hr
in
rain mn
in
humidity
%
barometer
mb
20260503003040 69 61 7.0 18.0 0.00 0.00 0.00 31 1013.3
20260503002530 69 52 9.0 18.0 0.00 0.00 0.00 30 1013.2
20260503002029 69 23 9.0 15.0 0.00 0.00 0.00 31 1013.3
20260503001543 70 35 8.0 15.0 0.00 0.00 0.00 30 1013.2
20260503001025 71 112 8.0 15.0 0.00 0.00 0.00 29 1013.3
20260503000525 71 34 8.0 15.0 0.00 0.00 0.00 28 1013.3
20260503000036 73 30 8.0 14.0 0.00 0.00 0.00 26 1013.3
20260502235525 74 1 2.0 5.0 0.00 0.00 0.00 19 1013.2
20260502235025 73 0 1.0 4.0 0.00 0.00 0.00 19 1013.3
20260502234546 73 108 1.0 5.0 0.00 0.00 0.00 18 1013.3
20260502234027 72 93 2.0 5.0 0.00 0.00 0.00 18 1013.3
20260502233530 72 98 2.0 5.0 0.00 0.00 0.00 18 1013.3
20260502233037 73 0 2.0 4.0 0.00 0.00 0.00 18 1013.4
20260502232528 73 28 0.0 4.0 0.00 0.00 0.00 19 1013.5
20260502232026 73 0 1.0 4.0 0.00 0.00 0.00 18 1013.5
20260502231541 73 333 1.0 8.0 0.00 0.00 0.00 20 1013.6
20260502231030 73 347 2.0 8.0 0.00 0.00 0.00 19 1013.6
20260502230526 74 347 2.0 6.0 0.00 0.00 0.00 19 1013.5
20260502230043 74 0 1.0 5.0 0.00 0.00 0.00 18 1013.6
20260502225527 74 74 3.0 5.0 0.00 0.00 0.00 17 1013.7
20260502225027 74 131 1.0 7.0 0.00 0.00 0.00 18 1013.8
20260502224539 73 181 4.0 7.0 0.00 0.00 0.00 18 1013.8
20260502224026 74 88 4.0 8.0 0.00 0.00 0.00 18 1013.8
20260502223526 74 99 3.0 8.0 0.00 0.00 0.00 18 1013.9
20260502223037 74 96 3.0 8.0 0.00 0.00 0.00 18 1014.0
20260502222526 74 140 3.0 8.0 0.00 0.00 0.00 21 1014.0
20260502222028 74 250 4.0 7.0 0.00 0.00 0.00 18 1014.1
20260502221540 74 221 3.0 7.0 0.00 0.00 0.00 20 1014.1
20260502221023 74 203 3.0 6.0 0.00 0.00 0.00 18 1014.2
20260502220526 74 0 2.0 8.0 0.00 0.00 0.00 21 1014.3
20260502220051 74 0 3.0 8.0 0.00 0.00 0.00 19 1014.5
20260502215525 73 198 2.0 8.0 0.00 0.00 0.00 18 1014.5
20260502215024 73 120 2.0 7.0 0.00 0.00 0.00 18 1014.6
20260502214541 73 58 3.0 8.0 0.00 0.00 0.00 18 1014.7
20260502214026 73 341 2.0 10.0 0.00 0.00 0.00 21 1014.7
20260502213526 73 44 5.0 10.0 0.00 0.00 0.00 18 1014.8
20260502213039 74 74 3.0 8.0 0.00 0.00 0.00 18 1014.8
20260502212528 74 339 1.0 5.0 0.00 0.00 0.00 17 1015.0
20260502212027 73 18 2.0 7.0 0.00 0.00 0.00 17 1015.1
20260502211540 73 288 1.0 7.0 0.00 0.00 0.00 18 1015.1
20260502211023 73 41 3.0 7.0 0.00 0.00 0.00 18 1015.4
20260502210526 73 53 5.0 9.0 0.00 0.00 0.00 18 1015.4
20260502210041 74 340 3.0 9.0 0.00 0.00 0.00 19 1015.4
20260502205526 74 55 4.0 7.0 0.00 0.00 0.00 20 1015.4
20260502205028 74 321 3.0 7.0 0.00 0.00 0.00 20 1015.5
20260502204537 73 266 3.0 10.0 0.00 0.00 0.00 18 1015.5
20260502204027 73 227 4.0 10.0 0.00 0.00 0.00 18 1015.7
20260502203526 73 183 3.0 10.0 0.00 0.00 0.00 19 1015.7
20260502203044 73 329 4.0 10.0 0.00 0.00 0.00 21 1015.7
20260502202523 73 337 4.0 8.0 0.00 0.00 0.00 20 1015.7
20260502202026 73 53 4.0 8.0 0.00 0.00 0.00 20 1015.7
20260502201541 73 349 4.0 8.0 0.00 0.00 0.00 22 1015.8
20260502201026 73 334 3.0 10.0 0.00 0.00 0.00 21 1015.9
20260502200523 73 329 2.0 10.0 0.00 0.00 0.00 21 1015.8
20260502200036 73 337 4.0 10.0 0.00 0.00 0.00 22 1016.0
20260502195527 72 328 3.0 10.0 0.00 0.00 0.00 21 1016.0
20260502195028 71 308 4.0 9.0 0.00 0.00 0.00 21 1016.1
20260502194542 71 320 5.0 8.0 0.00 0.00 0.00 22 1016.1
20260502194023 71 57 3.0 8.0 0.00 0.00 0.00 21 1016.2
20260502193527 71 53 4.0 11.0 0.00 0.00 0.00 20 1016.3
20260502193037 71 91 3.0 11.0 0.00 0.00 0.00 23 1016.4
20260502192526 71 13 4.0 11.0 0.00 0.00 0.00 20 1016.4
20260502192023 70 0 2.0 6.0 0.00 0.00 0.00 21 1016.6
20260502191541 70 71 3.0 10.0 0.00 0.00 0.00 20 1016.6
20260502191027 70 27 5.0 10.0 0.00 0.00 0.00 21 1016.7
20260502190526 70 330 4.0 9.0 0.00 0.00 0.00 24 1016.7
20260502190037 70 359 2.0 9.0 0.00 0.00 0.00 27 1017.0
20260502185526 70 55 4.0 9.0 0.00 0.00 0.00 22 1017.0
20260502185026 70 6 4.0 9.0 0.00 0.00 0.00 23 1017.1
20260502184540 69 19 4.0 9.0 0.00 0.00 0.00 21 1017.2
20260502184026 69 43 2.0 8.0 0.00 0.00 0.00 25 1017.2
20260502183527 69 345 3.0 8.0 0.00 0.00 0.00 25 1017.3
20260502183048 69 0 1.0 6.0 0.00 0.00 0.00 24 1017.4
20260502182528 69 209 2.0 6.0 0.00 0.00 0.00 24 1017.6
20260502182024 69 127 1.0 6.0 0.00 0.00 0.00 23 1017.7
20260502181538 68 236 2.0 7.0 0.00 0.00 0.00 24 1017.7
20260502181023 68 20 2.0 7.0 0.00 0.00 0.00 24 1017.8
20260502180523 68 61 4.0 7.0 0.00 0.00 0.00 25 1018.0
20260502164023 60 36 2.0 5.0 0.00 0.00 0.00 34 1018.7
20260502163522 59 37 2.0 6.0 0.00 0.00 0.00 35 1018.7
20260502163100 59 37 3.0 6.0 0.00 0.00 0.00 35 1018.8
20260502162530 58 56 3.0 7.0 0.00 0.00 0.00 36 1018.8
20260502162029 58 16 3.0 8.0 0.00 0.00 0.00 36 1018.8
20260502161537 57 32 4.0 8.0 0.00 0.00 0.00 37 1018.8
20260502161030 57 30 4.0 7.0 0.00 0.00 0.00 37 1018.7
20260502160535 57 68 3.0 7.0 0.00 0.00 0.00 39 1018.7
20260502152025 53 0 0.0 5.0 0.00 0.00 0.00 43 1018.9
20260502151538 53 0 1.0 5.0 0.00 0.00 0.00 47 1019.1
20260502151022 52 200 0.0 4.0 0.00 0.00 0.00 44 1019.1
20260502150522 52 200 1.0 4.0 0.00 0.00 0.00 43 1019.1
20260502130522 37 221 0.0 2.0 0.00 0.00 0.00 68 1019.0
20260502123522 33 0 0.0 1.0 0.00 0.00 0.00 74 1018.8
20260502123037 33 0 0.0 0.0 0.00 0.00 0.00 75 1018.9
20260502122522 33 0 0.0 0.0 0.00 0.00 0.00 76 1018.9
20260502122022 33 0 0.0 0.0 0.00 0.00 0.00 72 1018.9
20260502121546 32 0 0.0 0.0 0.00 0.00 0.00 72 1018.8
20260502121023 32 0 0.0 0.0 0.00 0.00 0.00 72 1018.8
20260502120526 33 0 0.0 1.0 0.00 0.00 0.00 71 1018.8
20260502115529 33 0 0.0 3.0 0.00 0.00 0.00 69 1018.8
20260502115025 34 240 0.0 3.0 0.00 0.00 0.00 68 1018.8
20260502114539 34 0 0.0 3.0 0.00 0.00 0.00 69 1018.7
20260502114026 35 240 1.0 3.0 0.00 0.00 0.00 67 1018.7
20260502113530 35 240 1.0 3.0 0.00 0.00 0.00 67 1018.7
20260502113037 36 236 1.0 3.0 0.00 0.00 0.00 65 1018.8
20260502112524 36 245 1.0 4.0 0.00 0.00 0.00 63 1018.8
20260502112024 37 245 1.0 4.0 0.00 0.00 0.00 61 1018.9
20260502111537 37 245 2.0 5.0 0.00 0.00 0.00 62 1018.8
20260502111022 36 203 3.0 5.0 0.00 0.00 0.00 65 1018.7
20260502110525 34 133 0.0 2.0 0.00 0.00 0.00 68 1018.7
20260502110043 34 0 0.0 2.0 0.00 0.00 0.00 68 1018.6
20260502105525 34 19 1.0 2.0 0.00 0.00 0.00 69 1018.6
20260502105025 34 0 0.0 0.0 0.00 0.00 0.00 69 1018.7
20260502104540 34 0 0.0 2.0 0.00 0.00 0.00 69 1018.7
20260502104025 34 0 0.0 2.0 0.00 0.00 0.00 70 1018.8
20260502103526 34 251 0.0 2.0 0.00 0.00 0.00 67 1018.8
20260502103038 35 0 0.0 3.0 0.00 0.00 0.00 65 1018.9
20260502102525 35 0 1.0 3.0 0.00 0.00 0.00 64 1018.9
20260502102026 35 0 0.0 3.0 0.00 0.00 0.00 65 1018.8
20260502101536 35 233 1.0 3.0 0.00 0.00 0.00 65 1018.7
20260502101022 35 212 0.0 3.0 0.00 0.00 0.00 66 1018.7
20260502100522 35 207 0.0 3.0 0.00 0.00 0.00 64 1018.6
20260502091027 39 0 0.0 2.0 0.00 0.00 0.00 56 1018.5
20260502090526 38 0 0.0 2.0 0.00 0.00 0.00 59 1018.4
20260502071025 40 0 0.0 0.0 0.00 0.00 0.00 65 1019.1
20260502070526 40 0 0.0 0.0 0.00 0.00 0.00 65 1019.0
20260502070051 40 0 0.0 0.0 0.00 0.00 0.00 64 1018.9
20260502065528 40 0 0.0 1.0 0.00 0.00 0.00 62 1018.9
20260502065027 40 0 0.0 1.0 0.00 0.00 0.00 63 1018.8
20260502064545 40 257 0.0 1.0 0.00 0.00 0.00 64 1018.8
20260502064029 40 0 0.0 0.0 0.00 0.00 0.00 62 1018.9
20260502063526 40 0 0.0 0.0 0.00 0.00 0.00 60 1018.9
20260502063040 40 0 0.0 0.0 0.00 0.00 0.00 60 1018.8
20260502062526 40 0 0.0 0.0 0.00 0.00 0.00 60 1018.7
20260502062022 40 0 0.0 0.0 0.00 0.00 0.00 62 1018.7
20260502061536 40 0 0.0 0.0 0.00 0.00 0.00 61 1018.5
20260502061023 41 0 0.0 0.0 0.00 0.00 0.00 61 1018.5
20260502060525 41 0 0.0 0.0 0.00 0.00 0.00 60 1018.7
20260502060036 41 0 0.0 0.0 0.00 0.00 0.00 58 1018.5
20260502055523 42 0 0.0 0.0 0.00 0.00 0.00 58 1018.5
20260502055023 42 0 0.0 0.0 0.00 0.00 0.00 55 1018.5
20260502054537 42 0 0.0 0.0 0.00 0.00 0.00 56 1018.5
20260502054025 42 0 0.0 0.0 0.00 0.00 0.00 57 1018.5
20260502053522 43 0 0.0 0.0 0.00 0.00 0.00 56 1018.6
20260502053036 43 0 0.0 2.0 0.00 0.00 0.00 57 1018.6
20260502052522 43 0 0.0 3.0 0.00 0.00 0.00 55 1018.5
20260502052022 44 257 0.0 3.0 0.00 0.00 0.00 55 1018.4
20260502051537 44 0 0.0 0.0 0.00 0.00 0.00 54 1018.4
20260502051026 44 0 0.0 0.0 0.00 0.00 0.00 53 1018.4
20260502050522 45 0 0.0 0.0 0.00 0.00 0.00 52 1018.4
20260502050037 46 0 0.0 0.0 0.00 0.00 0.00 50 1018.3
20260502045522 46 0 0.0 0.0 0.00 0.00 0.00 47 1018.3
20260502045026 47 0 0.0 0.0 0.00 0.00 0.00 47 1018.2
20260502044539 48 0 0.0 0.0 0.00 0.00 0.00 46 1018.4
20260502044021 48 0 0.0 0.0 0.00 0.00 0.00 42 1018.2
20260502043524 47 0 0.0 0.0 0.00 0.00 0.00 42 1018.2
20260502043041 48 0 0.0 0.0 0.00 0.00 0.00 45 1018.2
20260502042525 48 0 0.0 0.0 0.00 0.00 0.00 44 1018.2
20260502042025 48 0 0.0 0.0 0.00 0.00 0.00 46 1018.3
20260502041545 48 0 0.0 0.0 0.00 0.00 0.00 47 1018.2
20260502041029 49 0 0.0 0.0 0.00 0.00 0.00 45 1018.2
20260502040522 50 0 0.0 0.0 0.00 0.00 0.00 43 1018.2
20260502040039 51 0 0.0 0.0 0.00 0.00 0.00 42 1018.2
20260502035523 51 0 0.0 0.0 0.00 0.00 0.00 41 1018.2
20260502035022 52 0 0.0 0.0 0.00 0.00 0.00 39 1018.2
20260502034540 52 0 0.0 1.0 0.00 0.00 0.00 38 1018.1
20260502034024 53 0 0.0 3.0 0.00 0.00 0.00 37 1018.1
20260502033524 53 0 0.0 3.0 0.00 0.00 0.00 41 1018.2
20260502033040 52 0 0.0 2.0 0.00 0.00 0.00 40 1018.2
20260502032525 53 0 0.0 1.0 0.00 0.00 0.00 41 1018.1
20260502032021 53 0 0.0 1.0 0.00 0.00 0.00 39 1018.0
20260502031536 54 0 0.0 1.0 0.00 0.00 0.00 38 1017.9
20260502031027 54 0 0.0 1.0 0.00 0.00 0.00 39 1017.9
20260502030526 55 0 0.0 2.0 0.00 0.00 0.00 37 1017.9
20260502030038 55 0 0.0 3.0 0.00 0.00 0.00 37 1017.8
20260502025527 55 1 1.0 3.0 0.00 0.00 0.00 37 1017.7
20260502025027 56 0 0.0 0.0 0.00 0.00 0.00 38 1017.7
20260502024542 57 0 0.0 2.0 0.00 0.00 0.00 36 1017.7
20260502024026 57 0 0.0 3.0 0.00 0.00 0.00 33 1017.7
20260502023527 58 2 1.0 3.0 0.00 0.00 0.00 33 1017.6
20260502023036 59 0 0.0 0.0 0.00 0.00 0.00 32 1017.5
20260502022526 60 0 0.0 0.0 0.00 0.00 0.00 32 1017.5
20260502022026 61 0 0.0 3.0 0.00 0.00 0.00 30 1017.4
20260502021540 62 0 0.0 3.0 0.00 0.00 0.00 29 1017.4
20260502021026 62 0 0.0 2.0 0.00 0.00 0.00 27 1017.4
20260502020527 63 0 0.0 3.0 0.00 0.00 0.00 27 1017.4
20260502020041 64 0 0.0 3.0 0.00 0.00 0.00 26 1017.4
20260502015527 64 97 1.0 3.0 0.00 0.00 0.00 26 1017.4
20260502015027 65 0 0.0 2.0 0.00 0.00 0.00 26 1017.3
20260502014550 65 0 1.0 4.0 0.00 0.00 0.00 24 1017.4
20260502014026 65 0 1.0 5.0 0.00 0.00 0.00 24 1017.3
20260502013524 66 0 2.0 5.0 0.00 0.00 0.00 24 1017.1
20260502013041 66 64 1.0 6.0 0.00 0.00 0.00 25 1017.2
20260502012526 66 75 2.0 8.0 0.00 0.00 0.00 23 1017.1
20260502012027 67 44 3.0 8.0 0.00 0.00 0.00 22 1017.2
20260502011545 67 23 3.0 9.0 0.00 0.00 0.00 21 1017.1
20260502011026 67 360 4.0 9.0 0.00 0.00 0.00 22 1017.2
20260502010526 68 326 2.0 4.0 0.00 0.00 0.00 21 1017.1
20260502010039 69 285 1.0 4.0 0.00 0.00 0.00 20 1017.2
20260502005527 69 0 2.0 4.0 0.00 0.00 0.00 19 1017.2
20260502005027 69 338 1.0 7.0 0.00 0.00 0.00 19 1017.3
20260502004536 68 311 0.0 8.0 0.00 0.00 0.00 22 1017.2
20260502004026 68 349 4.0 8.0 0.00 0.00 0.00 21 1017.3
20260502003527 68 359 3.0 6.0 0.00 0.00 0.00 19 1017.4